User: anonymous   Login
Location: Unspecified
(0.0000°N, 0.0000°E)
Time: 16:32:09
(UTC+00:00)
Language:

SES 6 - Orbit

View from above orbital plane
View from above orbital plane
View from above satellite
View from above satellite

Ground track
Ground track

The orbit data is extracted from the following two-line orbital elements,

1 39172U 13026A   17262.11747199 -.00000293 +00000-0 +00000-0 0  9996
2 39172 000.0537 327.0536 0002179 236.9321 156.0057 01.00270329015723
Epoch (UTC): 19 September 2017 02:49:09
Eccentricity: 0.0002179
inclination: 0.0537°
perigee height: 35777 km
apogee height: 35796 km
right ascension of ascending node: 327.0536°
argument of perigee: 236.9321°
revolutions per day: 1.00270329
mean anomaly at epoch: 156.0057°
orbit number at epoch: 1572

The dashed part of the orbit path shows where the satellite is in the earth's shadow,  

DLR